Wind_Speed
50 44 39 44 49 50 46 46 48 46 45 42 42 43 42 42 42 35 40 44 40 45 46 51 54 53 54 57 60 62 64 66 66 67 71 71 72 72 72 74 77 81 85
47 47 41 43 48 47 44 46 46 44 41 40 41 41 40 41 41 39 39 44 49 50 49 56 54 56 58 61 62 64 65 66 68 69 69 69 70 72 75 79 86 91 97
50 47 44 44 48 45 44 44 42 40 38 38 38 38 38 40 39 42 41 44 49 49 54 55 57 58 61 63 64 65 66 67 68 69 68 71 73 79 83 90 95 102 108
50 49 40 44 46 42 42 40 38 36 34 34 35 36 36 38 39 45 47 49 50 54 55 57 59 60 63 63 64 65 66 66 67 69 72 76 82 88 94 97 102 108 98
38 38 38 42 41 39 38 34 34 29 34 32 33 33 32 43 46 46 48 50 52 55 56 59 60 62 62 64 65 66 66 68 72 76 79 84 90 96 103 106 100 79 56
31 33 35 38 35 33 31 29 25 34 31 32 32 30 35 43 46 47 49 50 53 55 57 60 60 61 62 64 64 66 70 75 79 82 87 94 100 106 102 85 62 52 48
30 32 32 31 26 25 22 26 33 28 27 31 38 34 36 41 45 48 51 51 54 56 58 58 59 61 62 62 65 69 73 78 86 92 98 103 103 88 68 55 56 56 56
27 27 24 20 29 25 24 28 22 24 23 27 39 39 40 44 47 49 50 52 55 56 56 59 59 59 61 64 68 73 78 86 93 100 104 92 67 56 58 59 61 59 56
24 24 21 25 24 26 25 20 22 26 28 32 38 41 43 44 46 49 51 53 53 55 57 57 59 61 65 69 74 79 86 94 100 98 74 55 54 55 53 51 51 51 46
15 23 21 18 22 22 31 27 29 32 30 37 39 41 41 44 46 48 49 51 53 53 55 58 62 66 70 75 80 85 91 99 85 52 48 45 45 47 49 49 50 48 44
19 13 13 18 24 33 32 29 27 32 34 33 36 39 41 45 46 48 50 50 51 53 57 62 66 70 75 81 87 93 96 69 41 40 38 43 46 48 50 50 51 50 45
13 16 18 16 16 20 26 29 26 28 31 34 37 40 41 43 45 47 48 51 54 58 62 67 71 76 82 88 93 87 54 36 35 37 42 45 48 50 50 50 50 51 48
5 9 12 12 12 14 18 22 25 29 33 36 37 39 42 43 44 47 50 54 58 63 67 72 77 83 89 93 75 42 32 31 36 41 46 49 50 50 50 49 50 51 46
5 5 4 7 13 17 21 25 28 31 33 35 38 40 41 43 46 50 55 59 64 69 73 79 84 90 91 63 34 30 30 35 40 45 49 50 51 50 50 50 50 47 40
5 7 10 14 18 22 25 27 29 32 34 36 38 39 43 46 50 54 59 64 69 73 79 85 90 83 54 30 27 28 33 40 46 51 52 51 50 51 51 51 47 41 37
9 12 16 20 22 23 25 28 31 33 34 36 40 43 47 50 56 61 67 71 75 80 86 88 72 46 24 24 25 31 38 45 50 52 52 53 53 53 50 45 40 35 32
17 18 20 22 23 25 28 30 32 33 36 39 43 46 51 56 61 66 71 77 82 87 83 60 40 18 20 22 27 35 42 47 49 51 53 56 55 49 42 36 31 26 22
20 21 22 23 25 27 29 29 32 35 39 42 47 52 57 62 66 72 78 84 86 76 51 33 13 16 18 24 31 37 42 45 47 51 53 53 51 43 33 25 19 14 11
22 22 23 25 27 27 28 31 34 37 41 46 51 57 62 68 74 81 88 85 68 44 27 8 11 14 19 27 34 37 39 43 46 46 48 46 39 30 21 14 11 9 9
23 24 25 27 27 28 30 34 37 41 46 51 57 62 67 75 86 91 82 60 37 18 2 6 10 15 22 29 33 35 40 42 40 39 39 37 33 27 21 17 13 13 13
24 26 28 26 28 30 33 36 40 46 51 57 63 69 75 85 91 79 55 31 12 3 2 5 10 17 23 30 32 34 40 37 35 35 35 34 30 27 23 19 17 15 15
26 27 26 27 30 33 36 40 45 51 56 62 69 75 85 89 74 49 23 7 8 6 3 6 11 18 25 31 31 33 37 33 31 32 32 30 27 24 22 20 19 18 17
27 26 27 29 32 36 39 44 49 54 60 67 73 83 85 68 43 16 6 13 9 5 5 7 12 18 25 32 32 32 36 33 30 31 30 27 26 24 22 20 19 19 20
26 26 29 32 35 38 43 47 52 57 64 70 82 82 61 38 13 14 15 11 7 6 5 8 12 17 23 30 35 32 34 36 31 30 31 29 26 23 21 19 19 20 22
26 28 31 34 37 41 44 49 54 60 66 77 82 54 32 12 16 15 10 7 5 6 7 9 12 17 22 27 33 34 32 34 36 31 30 29 27 23 20 19 20 23 26
27 30 33 36 38 41 47 51 56 64 68 80 50 23 13 10 11 8 7 7 6 7 8 9 13 17 19 24 28 33 33 30 32 34 29 27 26 23 20 19 21 25 26
Wind_Direction
237 238 243 242 239 239 239 240 245 249 255 258 261 265 271 275 279 278 288 287 286 296 296 296 297 296 297 298 298 298 298 299 300 301 302 302 302 301 301 300 300 300 299
236 236 236 234 233 234 235 237 243 247 253 256 259 265 268 275 283 285 286 279 298 296 296 296 296 296 296 297 298 299 300 301 302 302 302 302 301 302 300 300 301 301 300
230 231 232 224 227 225 232 237 242 247 252 256 262 267 274 278 284 289 283 290 291 292 293 294 295 296 297 298 300 301 302 303 302 302 303 302 302 302 302 301 303 303 302
221 224 226 219 219 221 228 236 242 248 255 258 266 271 278 278 286 292 284 290 291 291 295 294 295 296 299 300 301 302 303 302 302 302 302 302 301 302 304 304 304 302 301
219 216 217 216 212 218 228 233 242 253 254 262 269 273 281 258 277 282 286 287 292 294 293 294 297 299 300 302 303 303 304 303 303 304 304 304 305 305 305 306 305 303 299
202 214 207 207 209 219 227 233 244 245 259 265 271 275 279 276 281 286 289 293 292 292 294 298 299 301 303 304 305 305 305 305 306 306 307 306 307 306 308 307 305 301 297
195 199 198 201 207 220 225 217 241 256 263 269 268 268 281 281 282 290 291 291 291 296 297 299 302 303 303 304 304 306 308 308 308 307 307 306 306 309 306 305 302 301 299
180 182 187 190 207 209 217 242 250 259 266 275 275 282 284 286 288 288 289 293 296 298 301 302 303 303 304 305 306 308 307 308 307 307 308 309 308 305 305 305 304 303 301
168 171 186 190 212 229 235 237 254 263 263 265 274 280 285 285 287 292 294 296 299 302 303 303 304 305 306 307 309 309 309 308 308 309 309 307 308 310 314 317 317 313 310
192 194 169 216 218 231 242 222 241 252 268 273 279 282 285 290 292 294 297 300 303 303 304 305 307 308 309 309 308 307 308 309 312 306 309 312 315 318 320 324 328 323 312
155 164 236 233 228 236 233 270 264 276 279 282 285 287 290 293 296 299 301 302 302 303 305 307 308 309 309 309 309 309 311 313 304 308 309 313 316 317 320 320 321 321 313
182 191 225 246 250 260 259 266 274 276 281 286 289 291 295 298 301 301 302 303 305 307 308 309 310 310 309 308 311 314 312 307 309 311 314 315 318 316 314 315 313 316 312
195 227 261 275 268 262 266 274 281 288 291 292 296 299 302 303 303 304 306 307 308 309 311 311 310 309 310 314 314 311 309 310 313 315 317 316 314 313 311 311 312 313 310
230 230 260 275 275 283 287 289 291 294 297 300 303 305 305 304 306 307 309 311 312 312 311 311 311 313 316 313 309 312 311 314 316 317 316 313 312 312 311 312 312 310 308
273 285 295 299 294 292 294 297 297 301 305 307 306 305 306 308 309 310 311 311 310 310 311 313 315 317 314 311 313 312 316 318 320 318 316 314 314 314 313 312 311 309 308
306 304 294 292 295 298 300 303 307 308 306 306 307 309 310 311 313 313 313 311 311 311 313 316 316 314 308 315 316 319 321 323 321 318 318 317 317 315 313 311 308 307 305
307 305 304 305 305 306 309 309 308 308 309 311 312 313 313 314 315 314 313 312 312 314 318 317 315 310 317 321 323 326 328 325 324 322 322 320 319 319 315 311 307 306 306
307 307 306 308 310 310 310 309 310 312 315 317 317 316 316 315 315 314 314 315 316 320 319 315 313 319 324 327 332 335 332 329 328 328 328 328 327 326 323 319 318 319 323
305 304 306 309 310 310 310 312 314 317 319 319 319 318 317 316 315 315 315 317 320 317 317 315 325 330 334 340 343 340 336 335 336 339 339 340 345 347 348 357 359 15 9
303 306 310 312 310 310 313 315 318 320 321 320 320 320 318 318 318 316 318 320 318 317 327 340 345 345 349 350 350 345 345 346 348 350 356 6 11 21 29 34 37 24 9
306 310 310 308 310 312 316 319 322 323 322 322 323 321 320 321 317 319 319 317 321 110 58 358 357 358 360 360 356 355 354 354 358 3 11 21 26 30 35 34 28 19 21
307 308 307 308 312 316 319 321 323 325 324 325 325 323 323 320 322 323 324 330 120 114 60 23 12 11 8 7 4 2 3 1 7 10 16 18 21 25 27 28 31 36 38
308 306 306 311 315 318 320 322 325 327 327 328 328 327 324 325 329 341 79 120 116 94 46 30 19 14 9 10 9 9 9 9 11 16 15 15 21 26 31 36 42 39 30
305 305 311 314 316 319 322 325 328 328 331 332 332 330 330 333 359 104 119 112 104 64 34 21 14 11 8 9 11 11 13 15 14 16 17 20 23 27 33 38 33 25 22
305 309 313 314 318 322 326 330 330 332 334 336 336 336 344 34 99 113 96 90 68 26 12 7 5 4 4 7 10 12 13 17 18 16 16 17 23 25 28 27 22 19 22
307 311 314 316 320 325 329 331 331 335 337 339 342 355 28 65 98 85 65 47 18 0 358 357 355 355 357 2 5 11 14 15 18 18 16 17 19 18 21 20 19 19 24
Height
5638 5646 5652 5656 5661 5666 5671 5676 5680 5684 5687 5689 5691 5692 5692 5691 5690 5688 5686 5682 5679 5675 5671 5667 5661 5656 5651 5645 5638 5632 5625 5618 5613 5608 5597 5589 5582 5575 5569 5560 5551 5542 5534
5625 5631 5638 5643 5650 5656 5662 5666 5671 5675 5679 5681 5682 5684 5684 5683 5682 5679 5677 5671 5667 5664 5660 5654 5649 5643 5637 5631 5624 5617 5610 5602 5594 5589 5580 5571 5564 5555 5546 5536 5526 5514 5501
5611 5618 5624 5631 5639 5645 5653 5658 5664 5668 5670 5672 5674 5675 5675 5674 5672 5669 5666 5663 5658 5653 5648 5642 5636 5630 5623 5616 5609 5601 5594 5585 5575 5568 5562 5551 5543 5533 5525 5513 5501 5486 5471
5595 5604 5614 5622 5630 5638 5644 5652 5657 5661 5663 5665 5666 5667 5666 5662 5661 5659 5655 5651 5646 5640 5635 5629 5623 5616 5609 5601 5593 5585 5577 5568 5559 5550 5543 5533 5521 5510 5499 5489 5480 5457 5442
5588 5599 5607 5616 5623 5631 5639 5646 5651 5654 5657 5658 5659 5659 5657 5657 5654 5649 5645 5640 5634 5628 5622 5615 5608 5601 5593 5585 5577 5568 5560 5550 5540 5530 5521 5509 5497 5485 5471 5459 5444 5432 5419
5587 5597 5603 5612 5619 5627 5635 5640 5645 5649 5650 5650 5650 5649 5649 5647 5642 5638 5633 5627 5621 5616 5609 5602 5595 5587 5579 5569 5560 5550 5540 5529 5518 5508 5497 5485 5471 5455 5442 5430 5420 5413 5411
5585 5593 5603 5611 5618 5626 5631 5636 5640 5642 5642 5642 5641 5639 5638 5634 5631 5626 5620 5615 5609 5602 5596 5589 5581 5572 5564 5555 5546 5536 5525 5511 5496 5485 5475 5459 5446 5428 5418 5412 5404 5397 5389
5584 5594 5603 5610 5613 5617 5624 5632 5634 5636 5636 5635 5633 5630 5626 5623 5619 5614 5609 5603 5596 5590 5582 5575 5567 5558 5550 5541 5531 5520 5507 5491 5478 5462 5445 5432 5419 5410 5403 5397 5388 5381 5372
5586 5594 5597 5601 5613 5619 5623 5626 5628 5629 5628 5627 5625 5620 5617 5613 5608 5603 5597 5591 5584 5577 5568 5559 5552 5543 5534 5525 5513 5500 5487 5470 5453 5436 5422 5413 5406 5396 5387 5381 5372 5363 5357
5591 5596 5600 5609 5613 5616 5617 5620 5620 5621 5619 5618 5615 5612 5608 5603 5598 5592 5586 5579 5571 5563 5554 5545 5535 5526 5516 5504 5493 5481 5467 5450 5433 5420 5410 5401 5393 5385 5375 5367 5359 5351 5344
5594 5599 5603 5606 5608 5613 5612 5615 5611 5613 5612 5609 5607 5603 5598 5593 5586 5579 5572 5565 5558 5550 5541 5531 5521 5511 5499 5486 5473 5458 5443 5428 5419 5411 5403 5394 5384 5375 5365 5356 5346 5338 5332
5595 5599 5604 5607 5608 5609 5610 5610 5609 5608 5604 5601 5597 5592 5587 5581 5575 5568 5560 5552 5544 5536 5526 5516 5505 5493 5480 5465 5450 5435 5423 5416 5410 5402 5394 5385 5376 5365 5355 5346 5336 5328 5318
5597 5601 5603 5602 5603 5604 5605 5604 5602 5598 5595 5591 5586 5581 5576 5570 5563 5555 5547 5539 5530 5521 5510 5498 5487 5474 5459 5444 5429 5419 5414 5408 5401 5393 5384 5374 5364 5354 5344 5337 5326 5318 5309
5598 5600 5599 5599 5600 5599 5597 5595 5592 5589 5585 5581 5577 5571 5565 5558 5551 5544 5535 5526 5516 5504 5493 5480 5467 5453 5439 5425 5416 5411 5406 5400 5393 5384 5374 5363 5352 5342 5331 5322 5316 5307 5301
5596 5596 5595 5595 5594 5593 5591 5588 5585 5581 5577 5572 5567 5561 5555 5548 5540 5532 5522 5512 5502 5490 5477 5462 5447 5433 5420 5414 5409 5404 5399 5391 5382 5371 5360 5350 5339 5329 5318 5308 5301 5296 5290
5594 5594 5593 5592 5589 5587 5584 5581 5577 5573 5568 5563 5558 5551 5544 5536 5527 5517 5506 5494 5483 5471 5457 5444 5429 5419 5413 5409 5404 5398 5392 5383 5372 5360 5348 5336 5326 5315 5305 5296 5289 5284 5281
5591 5589 5587 5585 5583 5580 5577 5573 5569 5565 5560 5555 5548 5541 5533 5524 5514 5503 5491 5477 5465 5452 5438 5424 5417 5412 5409 5405 5400 5394 5385 5374 5363 5350 5338 5324 5311 5299 5290 5283 5278 5275 5273
5586 5585 5583 5580 5577 5574 5571 5567 5562 5557 5552 5545 5537 5529 5519 5509 5498 5486 5473 5458 5443 5430 5421 5414 5411 5409 5406 5402 5396 5388 5378 5367 5354 5341 5327 5312 5298 5287 5279 5274 5271 5270 5270
5582 5580 5577 5574 5571 5568 5564 5560 5555 5549 5543 5535 5526 5516 5505 5492 5479 5465 5452 5438 5426 5416 5411 5409 5408 5406 5403 5398 5391 5382 5372 5361 5348 5334 5320 5305 5291 5280 5274 5271 5270 5270 5270
5577 5574 5572 5568 5565 5561 5557 5552 5546 5540 5532 5523 5513 5503 5490 5475 5458 5440 5426 5417 5410 5406 5406 5407 5406 5404 5400 5395 5387 5377 5367 5355 5344 5332 5320 5306 5294 5285 5280 5277 5275 5274 5271
5571 5568 5565 5562 5558 5554 5549 5544 5537 5530 5521 5511 5500 5487 5473 5457 5438 5421 5410 5404 5402 5403 5405 5405 5404 5402 5398 5392 5383 5374 5364 5353 5343 5333 5322 5311 5302 5295 5289 5285 5282 5278 5275
5565 5562 5559 5555 5552 5547 5542 5535 5528 5519 5510 5499 5485 5469 5452 5432 5414 5403 5398 5398 5401 5403 5404 5404 5403 5400 5396 5390 5381 5373 5364 5354 5345 5335 5325 5316 5308 5301 5296 5291 5287 5283 5279
5559 5556 5552 5549 5544 5539 5533 5526 5518 5508 5498 5485 5471 5454 5431 5412 5401 5396 5396 5399 5402 5404 5404 5403 5402 5399 5394 5389 5381 5373 5365 5355 5346 5337 5329 5322 5314 5307 5301 5297 5292 5288 5284
5552 5549 5545 5541 5536 5531 5524 5516 5508 5498 5486 5472 5456 5436 5418 5406 5399 5398 5401 5403 5405 5405 5404 5403 5401 5398 5393 5388 5381 5373 5366 5357 5348 5340 5332 5324 5318 5312 5307 5302 5298 5293 5289
5546 5542 5538 5533 5528 5522 5515 5507 5498 5487 5474 5460 5443 5427 5415 5409 5406 5407 5407 5408 5407 5407 5405 5403 5401 5397 5393 5388 5382 5375 5367 5359 5351 5343 5336 5329 5323 5317 5312 5307 5302 5297 5292
5539 5535 5530 5525 5520 5513 5506 5498 5488 5476 5463 5450 5437 5429 5422 5417 5415 5414 5412 5411 5410 5408 5406 5403 5401 5397 5393 5388 5383 5377 5370 5362 5355 5348 5340 5334 5328 5322 5316 5312 5307 5301 5296